DMSP 5D-3 F17 DEB

Satellite information

Favourite Embed

Satellite Type and Status

DEBRISIN ORBIT

Key statistics

Satellite DMSP 5D-3 F17 DEB at a glance.

Uptime

6980

Days in orbit

Revolutions

≈ 14.3

Per day

Orbit

SSO

Sun Synchronous Orbit

Inclination

98.5

Latest

Satellite identification and parameters

Extended collection of information and parameters for DMSP 5D-3 F17 DEB.

Object identification

Identified? True

Debris? True

Object name: DMSP 5D-3 F17 DEB

International designator: 2006-050D

Object number (NORAD): 29525

Object ID (CCSDS): 29525

Country: UNITED STATES OF AMERICA (US)

Current information (Y/N): Y

RCS size: SMALL

Orbital parameters

Period: 100.668 minutes

Inclination: 98.5493 deg

SMA: 7168.359 km

Apoapsis: 793.065 km

Periapsis: 787.383 km

RAAN: 5.3537 deg

Eccentricy: 0.00039634

Argument of periapsis: 323.5001 deg

Mean anomaly: 158.423 deg

Mean motion: 14.3045155 rev/day

Mean motion (dot): 0.00002961 rev/day2

B* drag term: 0.0011539075 1/REarth

Two-line elements (TLE)

Creation date: Dec. 14, 2025, 3:07 a.m.

Reference frame: TEME

Reference center: EARTH

Epoch: Dec. 13, 2025, 3:30 p.m. UTC

TLE line 0: 0 DMSP 5D-3 F17 DEB

TLE line 1: 1 29525U 06050D 25347.64593657 .00002961 00000-0 11539-2 0 9999

TLE line 2: 2 29525 98.5493 5.3537 0003963 323.5001 158.4230 14.30451550989907

Live tracking on map

Real-time ground track for satellite DMSP 5D-3 F17 DEB.

In-orbit conjunctions

A list of the most updated potential collisions computed for object DMSP 5D-3 F17 DEB.

Target Orbit TCA Probability of collision Miss distance Type
SL-16 DEB LEO 2025-09-02 10:49:57 0.0001116259 101.0 (m) DEBRIS
COSMOS 1275 DEB LEO 2025-05-03 21:09:10 0.0007476462 91.0 (m) DEBRIS
FENGYUN 1C DEB SSO 2024-06-03 03:01:19 0.0001360901 248.0 (m) DEBRIS

Associated space launch

11th gen military meteorological satellite

DMSP 5D-3 F17 DEB was lifted into orbit during the mission ‘Delta IV M | DMSP F-17’, on board a Delta IV M space rocket.

The launch took place on Nov. 4, 2006, 1:53 p.m. from Space Launch Complex 6.

For more information about the launch, click the button.

Launch to space Delta IV M | DMSP F-17
Delta IV M | DMSP F-17

Agency: N/A

Status: Launch Successful

Launch date: Nov. 4, 2006, 1:53 p.m. UTC

Rocket: Delta IV M

Launch pad: Space Launch Complex 6

Location: Vandenberg SFB, CA, USA

...

Latest news about this satellite

There are no fresh news available about this satellite. Check back as we update our databases every day.


Newsletter sign-up

Weekly statistics, charts and insights to help you stay on top of the space industry.